When you browse on this site, cookies collect data to enhance your experience and personalize the content and advertising you see.
Visit our Privacy Policy to learn more. By continuing to use the site, you agree to this use of cookies and data.
  • In Slovakia
  • List of Countries
  • For 7 days
  • Water Temperature
  • Weather Map
  • Weather Widgets
  • user-avatar
    Login

    Hourly Weather Sinemorec

    Today, 18 November, Monday

    Time Temperature Precipitation Wind Pressure Humidity
    00:00 +16°C° 0 mm 1 mps 762 mmHg 88%
    01:00 +15°C° 0 mm 1 mps 762 mmHg 90%
    02:00 +15°C° 0 mm 1 mps 762 mmHg 91%
    03:00 +15°C° 0 mm 1 mps 762 mmHg 91%
    04:00 +14°C° 0 mm 1 mps 762 mmHg 92%
    05:00 +14°C° 0 mm 1 mps 762 mmHg 92%
    06:00 +15°C° 0 mm 2 mps 762 mmHg 91%
    07:00 +15°C° 0 mm 2 mps 762 mmHg 90%
    08:00 +15°C° 0 mm 2 mps 762 mmHg 90%
    09:00 +17°C° 0 mm 2 mps 762 mmHg 81%
    10:00 +18°C° 0 mm 2 mps 762 mmHg 73%
    11:00 +20°C° 0 mm 2 mps 762 mmHg 65%
    12:00 +21°C° 0 mm 3 mps 762 mmHg 62%
    13:00 +21°C° 0 mm 3 mps 762 mmHg 59%
    14:00 +22°C° 0 mm 3 mps 762 mmHg 57%
    15:00 +21°C° 0 mm 3 mps 762 mmHg 60%
    16:00 +20°C° 0 mm 3 mps 763 mmHg 64%
    17:00 +19°C° 0 mm 3 mps 763 mmHg 68%
    18:00 +19°C° 0 mm 3 mps 763 mmHg 69%
    19:00 +18°C° 0 mm 2 mps 763 mmHg 70%
    20:00 +18°C° 0 mm 2 mps 763 mmHg 70%
    21:00 +17°C° 0 mm 2 mps 763 mmHg 70%
    22:00 +17°C° 0 mm 2 mps 764 mmHg 70%
    23:00 +18°C° 0 mm 1 mps 764 mmHg 69%

    Tomorrow, 19 November, Tuesday

    Time Temperature Precipitation Wind Pressure Humidity
    00:00 +17°C° 0 mm 2 mps 764 mmHg 70%
    01:00 +16°C° 0 mm 2 mps 764 mmHg 70%
    02:00 +16°C° 0 mm 2 mps 764 mmHg 71%
    03:00 +16°C° 0 mm 2 mps 764 mmHg 71%
    04:00 +16°C° 0 mm 2 mps 764 mmHg 71%
    05:00 +15°C° 0 mm 2 mps 764 mmHg 71%
    06:00 +16°C° 0 mm 1 mps 765 mmHg 70%
    07:00 +16°C° 0 mm 1 mps 765 mmHg 69%
    08:00 +16°C° 0 mm 1 mps 765 mmHg 68%
    09:00 +19°C° 0 mm 1 mps 765 mmHg 62%
    10:00 +21°C° 0 mm 1 mps 765 mmHg 56%
    11:00 +22°C° 0 mm 1 mps 765 mmHg 51%
    12:00 +22°C° 0 mm 1 mps 765 mmHg 50%
    13:00 +21°C° 0 mm 2 mps 764 mmHg 50%
    14:00 +23°C° 0 mm 2 mps 764 mmHg 49%
    15:00 +20°C° 0 mm 2 mps 764 mmHg 55%
    16:00 +19°C° 0 mm 2 mps 764 mmHg 60%
    17:00 +17°C° 0 mm 2 mps 764 mmHg 65%
    18:00 +17°C° 0 mm 2 mps 764 mmHg 68%
    19:00 +16°C° 0 mm 2 mps 764 mmHg 71%
    20:00 +16°C° 0 mm 2 mps 764 mmHg 74%
    21:00 +15°C° 0 mm 2 mps 764 mmHg 77%
    22:00 +15°C° 0 mm 2 mps 764 mmHg 80%
    23:00 +15°C° 0 mm 2 mps 763 mmHg 83%

    Day after tomorrow, 20 November, Wednesday

    Time Temperature Precipitation Wind Pressure Humidity
    00:00 +15°C° 0 mm 2 mps 763 mmHg 84%
    01:00 +15°C° 0 mm 2 mps 763 mmHg 86%
    02:00 +14°C° 0 mm 2 mps 763 mmHg 88%
    03:00 +14°C° 0 mm 2 mps 763 mmHg 89%
    04:00 +14°C° 0 mm 2 mps 762 mmHg 91%
    05:00 +13°C° 0 mm 3 mps 762 mmHg 92%
    06:00 +13°C° 0 mm 3 mps 762 mmHg 92%
    07:00 +14°C° 0 mm 3 mps 762 mmHg 92%
    08:00 +14°C° 0 mm 3 mps 762 mmHg 91%
    09:00 +15°C° 0 mm 4 mps 762 mmHg 84%
    10:00 +17°C° 0 mm 4 mps 762 mmHg 76%
    11:00 +18°C° 0 mm 4 mps 762 mmHg 68%
    12:00 +19°C° 0 mm 4 mps 761 mmHg 66%
    13:00 +19°C° 0 mm 4 mps 761 mmHg 65%
    14:00 +19°C° 0 mm 4 mps 761 mmHg 63%
    15:00 +18°C° 0 mm 3 mps 761 mmHg 69%
    16:00 +17°C° 0 mm 3 mps 761 mmHg 76%
    17:00 +16°C° 0 mm 3 mps 760 mmHg 83%
    18:00 +16°C° 0.1 mm 3 mps 761 mmHg 82%
    19:00 +16°C° 0.1 mm 2 mps 761 mmHg 82%
    20:00 +16°C° 0.1 mm 2 mps 761 mmHg 82%
    21:00 +15°C° 0.2 mm 2 mps 761 mmHg 84%
    22:00 +15°C° 0.2 mm 2 mps 761 mmHg 86%
    23:00 +15°C° 0.2 mm 2 mps 761 mmHg 88%

    21 November, Thursday

    Time Temperature Precipitation Wind Pressure Humidity
    00:00 +15°C° 0.2 mm 2 mps 761 mmHg 88%
    01:00 +14°C° 0.2 mm 3 mps 760 mmHg 89%
    02:00 +14°C° 0.2 mm 3 mps 760 mmHg 90%
    03:00 +13°C° 0 mm 3 mps 760 mmHg 91%
    04:00 +14°C° 0 mm 2 mps 760 mmHg 91%
    05:00 +14°C° 0 mm 2 mps 760 mmHg 92%
    06:00 +14°C° 0 mm 2 mps 760 mmHg 91%
    07:00 +14°C° 0 mm 2 mps 760 mmHg 91%
    08:00 +14°C° 0 mm 2 mps 760 mmHg 90%
    09:00 +15°C° 0 mm 2 mps 760 mmHg 84%
    10:00 +17°C° 0 mm 2 mps 760 mmHg 77%
    11:00 +18°C° 0 mm 2 mps 760 mmHg 71%
    12:00 +18°C° 0 mm 2 mps 760 mmHg 71%
    13:00 +18°C° 0 mm 2 mps 760 mmHg 71%
    14:00 +18°C° 0 mm 3 mps 760 mmHg 71%
    15:00 +17°C° 0.1 mm 3 mps 760 mmHg 77%
    16:00 +16°C° 0.1 mm 3 mps 760 mmHg 83%
    17:00 +14°C° 0.1 mm 3 mps 760 mmHg 89%
    18:00 +14°C° 0.2 mm 3 mps 760 mmHg 90%
    19:00 +13°C° 0.2 mm 3 mps 760 mmHg 91%
    20:00 +13°C° 0.2 mm 4 mps 761 mmHg 92%
    21:00 +13°C° 0.3 mm 4 mps 761 mmHg 92%
    22:00 +13°C° 0.3 mm 4 mps 761 mmHg 91%
    23:00 +14°C° 0.3 mm 5 mps 761 mmHg 90%

    22 November, Friday

    Time Temperature Precipitation Wind Pressure Humidity
    00:00 +14°C° 0.3 mm 5 mps 761 mmHg 90%
    01:00 +14°C° 0.3 mm 5 mps 761 mmHg 89%
    02:00 +14°C° 0.3 mm 5 mps 761 mmHg 89%
    03:00 +14°C° 0.4 mm 6 mps 761 mmHg 88%
    04:00 +14°C° 0.4 mm 7 mps 761 mmHg 88%
    05:00 +14°C° 0.4 mm 7 mps 761 mmHg 87%
    06:00 +12°C° 0.2 mm 7 mps 761 mmHg 86%
    07:00 +12°C° 0.2 mm 7 mps 762 mmHg 84%
    08:00 +12°C° 0.2 mm 7 mps 762 mmHg 83%
    09:00 +12°C° 0.1 mm 7 mps 762 mmHg 81%
    10:00 +12°C° 0.1 mm 7 mps 762 mmHg 78%
    11:00 +12°C° 0.1 mm 7 mps 763 mmHg 76%
    12:00 +12°C° 0.1 mm 7 mps 762 mmHg 76%
    13:00 +12°C° 0.1 mm 7 mps 762 mmHg 75%
    14:00 +12°C° 0.1 mm 7 mps 762 mmHg 75%
    15:00 +12°C° 0.1 mm 7 mps 762 mmHg 78%
    16:00 +11°C° 0.1 mm 7 mps 763 mmHg 82%
    17:00 +11°C° 0.1 mm 8 mps 763 mmHg 85%
    18:00 +10°C° 0 mm 7 mps 763 mmHg 85%
    19:00 +10°C° 0 mm 7 mps 763 mmHg 84%
    20:00 +10°C° 0 mm 7 mps 763 mmHg 83%
    21:00 +10°C° 0.1 mm 7 mps 764 mmHg 82%
    22:00 +10°C° 0.1 mm 6 mps 764 mmHg 81%
    23:00 +10°C° 0.1 mm 6 mps 764 mmHg 80%

    23 November, Saturday

    Time Temperature Precipitation Wind Pressure Humidity
    00:00 +10°C° 0.1 mm 6 mps 764 mmHg 82%
    01:00 +9°C° 0.1 mm 6 mps 764 mmHg 83%
    02:00 +9°C° 0.1 mm 6 mps 763 mmHg 85%
    03:00 +9°C° 0.5 mm 6 mps 763 mmHg 86%
    04:00 +9°C° 0.5 mm 6 mps 763 mmHg 87%
    05:00 +9°C° 0.5 mm 6 mps 763 mmHg 88%
    06:00 +9°C° 0.2 mm 5 mps 763 mmHg 88%
    07:00 +9°C° 0.2 mm 5 mps 763 mmHg 88%
    08:00 +9°C° 0.2 mm 5 mps 763 mmHg 88%
    09:00 +9°C° 0.2 mm 5 mps 763 mmHg 88%
    10:00 +10°C° 0.2 mm 4 mps 763 mmHg 88%
    11:00 +10°C° 0.2 mm 4 mps 763 mmHg 88%
    12:00 +10°C° 0.1 mm 4 mps 763 mmHg 89%
    13:00 +10°C° 0.1 mm 4 mps 763 mmHg 89%
    14:00 +10°C° 0.1 mm 4 mps 762 mmHg 89%
    15:00 +10°C° 0.2 mm 4 mps 762 mmHg 90%
    16:00 +10°C° 0.2 mm 4 mps 762 mmHg 90%
    17:00 +10°C° 0.2 mm 3 mps 762 mmHg 90%
    18:00 +10°C° 0.1 mm 3 mps 762 mmHg 90%
    19:00 +10°C° 0.1 mm 2 mps 762 mmHg 90%
    20:00 +12°C° 0.1 mm 2 mps 762 mmHg 90%
    21:00 +12°C° 0 mm 2 mps 762 mmHg 90%
    22:00 +12°C° 0 mm 1 mps 762 mmHg 90%
    23:00 +12°C° 0 mm 1 mps 762 mmHg 90%
    Show more